| time (UTC) | temp F | wind direction | speed MPH | gust MPH | rain 1hr in | rain 24hr in | rain mn in | humidity % | barometer mb |
| 20260831233042 | 81 | 337 | 0.0 | 1.0 | 0.00 | 0.16 | 0.16 | 68 | 1009.0 |
| 20260831231544 | 81 | 337 | 0.0 | 1.0 | 0.00 | 0.16 | 0.16 | 68 | 1008.9 |
| 20260831230040 | 81 | 337 | 0.0 | 2.0 | 0.00 | 0.16 | 0.16 | 70 | 1009.0 |
| 20260831224540 | 81 | 338 | 1.0 | 3.0 | 0.00 | 0.16 | 0.16 | 71 | 1009.0 |
| 20260831223042 | 81 | 338 | 0.0 | 6.0 | 0.00 | 0.16 | 0.16 | 73 | 1008.9 |
| 20260831221542 | 81 | 26 | 0.0 | 3.0 | 0.00 | 0.16 | 0.16 | 76 | 1008.9 |
| 20260831220037 | 82 | 26 | 0.0 | 4.0 | 0.00 | 0.16 | 0.16 | 78 | 1008.8 |
| 20260831214536 | 82 | 17 | 0.0 | 2.0 | 0.00 | 0.16 | 0.16 | 79 | 1008.8 |
| 20260831213042 | 82 | 13 | 1.0 | 3.0 | 0.00 | 0.16 | 0.16 | 78 | 1008.6 |
| 20260831211536 | 83 | 13 | 0.0 | 4.0 | 0.00 | 0.16 | 0.16 | 77 | 1008.4 |
| 20260831210035 | 83 | 316 | 0.0 | 3.0 | 0.00 | 0.16 | 0.16 | 78 | 1008.2 |
| 20260831204535 | 84 | 36 | 1.0 | 5.0 | 0.00 | 0.16 | 0.16 | 77 | 1008.2 |
| 20260831203034 | 83 | 26 | 0.0 | 4.0 | 0.00 | 0.16 | 0.16 | 78 | 1008.1 |
| 20260831201537 | 82 | 29 | 0.0 | 5.0 | 0.00 | 0.16 | 0.16 | 79 | 1008.2 |
| 20260831200025 | 81 | 26 | 0.0 | 1.0 | 0.00 | 0.16 | 0.16 | 83 | 1008.2 |
| 20260831194519 | 80 | 26 | 0.0 | 3.0 | 0.00 | 0.16 | 0.16 | 84 | 1008.4 |
| 20260831193017 | 79 | 26 | 1.0 | 4.0 | 0.00 | 0.16 | 0.16 | 86 | 1008.3 |
| 20260831191519 | 79 | 42 | 0.0 | 3.0 | 0.00 | 0.16 | 0.16 | 87 | 1008.4 |
| 20260831190016 | 79 | 44 | 0.0 | 4.0 | 0.00 | 0.16 | 0.16 | 85 | 1008.3 |
| 20260831184514 | 79 | 219 | 0.0 | 3.0 | 0.00 | 0.16 | 0.16 | 86 | 1008.2 |
| 20260831183011 | 78 | 219 | 0.0 | 3.0 | 0.00 | 0.16 | 0.16 | 88 | 1008.3 |
| 20260831181509 | 77 | 196 | 0.0 | 1.0 | 0.00 | 0.16 | 0.16 | 90 | 1008.5 |
| 20260831180005 | 77 | 196 | 0.0 | 3.0 | 0.00 | 0.16 | 0.16 | 91 | 1008.4 |
| 20260831174503 | 76 | 159 | 0.0 | 0.0 | 0.00 | 0.16 | 0.16 | 93 | 1008.4 |
| 20260831173002 | 76 | 159 | 0.0 | 1.0 | 0.00 | 0.16 | 0.16 | 94 | 1008.5 |
| 20260831171601 | 75 | 159 | 0.0 | 2.0 | 0.00 | 0.16 | 0.16 | 95 | 1008.4 |
| 20260831170058 | 75 | 159 | 0.0 | 2.0 | 0.00 | 0.16 | 0.16 | 97 | 1008.4 |
| 20260831164556 | 73 | 159 | 0.0 | 0.0 | 0.00 | 0.16 | 0.16 | 98 | 1008.4 |
| 20260831163051 | 72 | 159 | 0.0 | 1.0 | 0.00 | 0.16 | 0.16 | 98 | 1008.3 |
| 20260831161552 | 72 | 159 | 0.0 | 0.0 | 0.00 | 0.16 | 0.16 | 99 | 1008.3 |
| 20260831160049 | 71 | 159 | 0.0 | 0.0 | 0.00 | 0.16 | 0.16 | 99 | 1008.3 |
| 20260831154552 | 71 | 159 | 0.0 | 1.0 | 0.00 | 0.16 | 0.16 | 99 | 1008.2 |
| 20260831153047 | 71 | 159 | 0.0 | 3.0 | 0.00 | 0.16 | 0.16 | 99 | 1008.0 |
| 20260831151553 | 72 | 159 | 0.0 | 1.0 | 0.00 | 0.16 | 0.16 | 100 | 1007.9 |
| 20260831150046 | 72 | 159 | 0.0 | 1.0 | 0.00 | 0.16 | 0.16 | 100 | 1007.8 |
| 20260831144607 | 71 | 159 | 0.0 | 0.0 | 0.00 | 0.16 | 0.16 | 100 | 1007.7 |
| 20260831143043 | 71 | 159 | 0.0 | 1.0 | 0.00 | 0.16 | 0.16 | 100 | 1007.5 |
| 20260831141543 | 71 | 159 | 0.0 | 1.0 | 0.00 | 0.16 | 0.16 | 100 | 1007.3 |
| 20260831140040 | 70 | 159 | 0.0 | 0.0 | 0.00 | 0.16 | 0.16 | 100 | 1007.3 |
| 20260831134541 | 70 | 159 | 0.0 | 1.0 | 0.00 | 0.16 | 0.16 | 100 | 1007.5 |
| 20260831133036 | 70 | 159 | 0.0 | 0.0 | 0.00 | 0.16 | 0.16 | 100 | 1007.5 |
| 20260831131532 | 69 | 159 | 0.0 | 0.0 | 0.00 | 0.16 | 0.16 | 100 | 1007.2 |
| 20260831130030 | 69 | 159 | 0.0 | 0.0 | 0.01 | 0.16 | 0.16 | 100 | 1006.9 |
| 20260831124536 | 68 | 159 | 0.0 | 1.0 | 0.02 | 0.16 | 0.16 | 100 | 1006.8 |
| 20260831123034 | 68 | 159 | 0.0 | 1.0 | 0.16 | 0.16 | 0.16 | 100 | 1007.2 |
| 20260831121540 | 68 | 159 | 0.0 | 1.0 | 0.16 | 0.16 | 0.16 | 99 | 1007.2 |
| 20260831120011 | 68 | 159 | 0.0 | 1.0 | 0.14 | 0.14 | 0.14 | 99 | 1007.0 |
| 20260831114556 | 68 | 159 | 0.0 | 6.0 | 0.14 | 0.14 | 0.14 | 99 | 1006.6 |
| 20260831113039 | 68 | 128 | 0.0 | 0.0 | 0.00 | 0.00 | 0.00 | 99 | 1007.4 |
| 20260831111536 | 67 | 128 | 0.0 | 0.0 | 0.00 | 0.00 | 0.00 | 99 | 1007.2 |
| 20260831110036 | 67 | 128 | 0.0 | 0.0 | 0.00 | 0.00 | 0.00 | 99 | 1007.3 |
| 20260831104541 | 67 | 128 | 0.0 | 0.0 | 0.00 | 0.00 | 0.00 | 98 | 1007.3 |
| 20260831103033 | 67 | 128 | 0.0 | 0.0 | 0.00 | 0.00 | 0.00 | 98 | 1007.2 |
| 20260831101533 | 67 | 128 | 0.0 | 0.0 | 0.00 | 0.00 | 0.00 | 98 | 1007.2 |
| 20260831100044 | 67 | 128 | 0.0 | 0.0 | 0.00 | 0.00 | 0.00 | 98 | 1007.5 |
| 20260831094532 | 67 | 128 | 0.0 | 0.0 | 0.00 | 0.00 | 0.00 | 97 | 1007.6 |
| 20260831093032 | 67 | 128 | 0.0 | 0.0 | 0.00 | 0.00 | 0.00 | 97 | 1007.6 |
| 20260831091531 | 67 | 128 | 0.0 | 0.0 | 0.00 | 0.00 | 0.00 | 97 | 1007.6 |
| 20260831090030 | 68 | 128 | 0.0 | 0.0 | 0.00 | 0.00 | 0.00 | 97 | 1007.3 |
| 20260831084528 | 68 | 128 | 0.0 | 0.0 | 0.00 | 0.00 | 0.00 | 97 | 1007.1 |
| 20260831083026 | 68 | 128 | 0.0 | 0.0 | 0.00 | 0.00 | 0.00 | 97 | 1007.0 |
| 20260831081524 | 68 | 128 | 0.0 | 0.0 | 0.00 | 0.00 | 0.00 | 97 | 1007.3 |
| 20260831080026 | 68 | 128 | 0.0 | 0.0 | 0.00 | 0.00 | 0.00 | 97 | 1007.6 |
| 20260831074521 | 68 | 128 | 0.0 | 0.0 | 0.00 | 0.00 | 0.00 | 96 | 1007.9 |
| 20260831073028 | 68 | 128 | 0.0 | 1.0 | 0.00 | 0.00 | 0.00 | 96 | 1008.0 |
| 20260831071518 | 68 | 128 | 0.0 | 3.0 | 0.00 | 0.00 | 0.00 | 96 | 1008.4 |
| 20260831070014 | 69 | 130 | 0.0 | 3.0 | 0.00 | 0.00 | 0.00 | 96 | 1008.9 |
| 20260831064516 | 69 | 98 | 0.0 | 4.0 | 0.00 | 0.00 | 0.00 | 96 | 1009.2 |
| 20260831063015 | 69 | 29 | 0.0 | 1.0 | 0.00 | 0.00 | 0.00 | 95 | 1009.3 |
| 20260831061509 | 69 | 28 | 0.0 | 0.0 | 0.00 | 0.00 | 0.00 | 95 | 1009.5 |
| 20260831060007 | 69 | 28 | 0.0 | 0.0 | 0.00 | 0.00 | 0.00 | 95 | 1009.2 |
| 20260831054505 | 69 | 28 | 0.0 | 0.0 | 0.00 | 0.00 | 0.00 | 95 | 1009.5 |
| 20260831053003 | 69 | 28 | 0.0 | 1.0 | 0.00 | 0.00 | 0.00 | 95 | 1009.7 |
| 20260831051600 | 69 | 28 | 0.0 | 1.0 | 0.00 | 0.00 | 0.00 | 94 | 1010.1 |
| 20260831050110 | 69 | 28 | 0.0 | 1.0 | 0.00 | 0.00 | 0.00 | 94 | 1010.2 |
| 20260831044600 | 69 | 28 | 0.0 | 3.0 | 0.00 | 0.00 | 0.00 | 94 | 1009.9 |
| 20260831043056 | 69 | 347 | 0.0 | 0.0 | 0.00 | 0.00 | 0.00 | 94 | 1009.9 |
| 20260831041615 | 69 | 347 | 0.0 | 0.0 | 0.00 | 0.00 | 0.00 | 94 | 1010.0 |
| 20260831040054 | 69 | 347 | 0.0 | 1.0 | 0.00 | 0.00 | 0.00 | 94 | 1010.1 |
| 20260831034555 | 69 | 347 | 0.0 | 0.0 | 0.00 | 0.00 | 0.00 | 94 | 1010.2 |
| 20260831033108 | 69 | 347 | 0.0 | 0.0 | 0.00 | 0.00 | 0.00 | 94 | 1010.5 |
| 20260831031555 | 69 | 347 | 0.0 | 0.0 | 0.00 | 0.00 | 0.00 | 94 | 1010.3 |
| 20260831030052 | 69 | 347 | 0.0 | 0.0 | 0.00 | 0.00 | 0.00 | 95 | 1010.3 |
| 20260831024552 | 69 | 347 | 0.0 | 1.0 | 0.00 | 0.00 | 0.00 | 95 | 1010.3 |
| 20260831023053 | 68 | 347 | 0.0 | 0.0 | 0.00 | 0.00 | 0.00 | 95 | 1010.4 |
| 20260831021551 | 68 | 347 | 0.0 | 0.0 | 0.00 | 0.00 | 0.00 | 95 | 1010.5 |
| 20260831020051 | 68 | 347 | 0.0 | 0.0 | 0.00 | 0.00 | 0.00 | 95 | 1010.4 |
| 20260831014601 | 68 | 347 | 0.0 | 4.0 | 0.00 | 0.00 | 0.00 | 95 | 1010.3 |
| 20260831013056 | 68 | 285 | 0.0 | 3.0 | 0.00 | 0.00 | 0.00 | 94 | 1010.3 |
| 20260831011549 | 69 | 71 | 1.0 | 5.0 | 0.00 | 0.00 | 0.00 | 93 | 1010.1 |
| 20260831010106 | 69 | 5 | 0.0 | 2.0 | 0.00 | 0.00 | 0.00 | 92 | 1010.2 |
| 20260831004549 | 70 | 5 | 0.0 | 2.0 | 0.00 | 0.00 | 0.00 | 91 | 1010.4 |
| 20260831003101 | 70 | 5 | 0.0 | 1.0 | 0.00 | 0.00 | 0.00 | 90 | 1010.3 |
| 20260831001547 | 70 | 355 | 0.0 | 4.0 | 0.00 | 0.00 | 0.00 | 90 | 1010.1 |
| 20260831000046 | 71 | 60 | 0.0 | 2.0 | 0.00 | 0.00 | 0.00 | 89 | 1010.4 |
| 20260830234552 | 71 | 60 | 0.0 | 2.0 | 0.00 | 0.00 | 0.00 | 89 | 1010.6 |